| time (UTC) | temp C | wind direction | speed KPH | gust KPH | rain 1hr cm | rain 24hr cm | rain mn cm | humidity % | barometer mb |
| 20260509030216 | 15 | 150 | 0.0 | 1.6 | 0.00 | 0.03 | 0.03 | 54 | 1009.8 |
| 20260509025714 | 15 | 150 | 0.0 | 1.6 | 0.00 | 0.03 | 0.03 | 54 | 1009.8 |
| 20260509025212 | 15 | 217 | 0.0 | 1.6 | 0.00 | 0.03 | 0.03 | 53 | 1010.0 |
| 20260509024934 | 15 | 219 | 0.0 | 0.0 | 0.00 | 0.03 | 0.03 | 53 | 1009.9 |
| 20260509024208 | 15 | 219 | 0.0 | 1.6 | 0.00 | 0.03 | 0.03 | 53 | 1009.9 |
| 20260509023928 | 15 | 219 | 0.0 | 1.6 | 0.00 | 0.03 | 0.03 | 52 | 1010.0 |
| 20260509023204 | 15 | 219 | 0.0 | 1.6 | 0.00 | 0.03 | 0.03 | 52 | 1009.9 |
| 20260509022659 | 15 | 219 | 0.0 | 1.6 | 0.00 | 0.03 | 0.03 | 51 | 1009.9 |
| 20260509022158 | 16 | 219 | 0.0 | 1.6 | 0.00 | 0.03 | 0.03 | 50 | 1009.9 |
| 20260509022152 | 15 | 219 | 0.0 | 1.6 | 0.00 | 0.03 | 0.03 | 50 | 1009.9 |
| 20260509021359 | 16 | 141 | 0.0 | 1.6 | 0.00 | 0.03 | 0.03 | 50 | 1010.0 |
| 20260509020634 | 16 | 141 | 0.0 | 0.0 | 0.00 | 0.03 | 0.03 | 50 | 1010.0 |
| 20260509020128 | 16 | 57 | 0.0 | 0.0 | 0.00 | 0.03 | 0.03 | 49 | 1009.9 |
| 20260509015621 | 16 | 56 | 0.0 | 0.0 | 0.00 | 0.03 | 0.03 | 49 | 1009.7 |
| 20260509015113 | 16 | 56 | 0.0 | 0.0 | 0.00 | 0.03 | 0.03 | 48 | 1009.7 |
| 20260509014612 | 16 | 57 | 0.0 | 0.0 | 0.00 | 0.03 | 0.03 | 48 | 1009.8 |
| 20260509014058 | 16 | 56 | 0.0 | 0.0 | 0.00 | 0.03 | 0.03 | 47 | 1009.8 |
| 20260509013552 | 16 | 56 | 0.0 | 1.6 | 0.00 | 0.03 | 0.03 | 47 | 1009.7 |
| 20260509013320 | 16 | 56 | 0.0 | 1.6 | 0.00 | 0.03 | 0.03 | 47 | 1009.6 |
| 20260509012541 | 16 | 44 | 0.0 | 0.0 | 0.00 | 0.03 | 0.03 | 47 | 1009.6 |
| 20260509012034 | 16 | 44 | 0.0 | 0.0 | 0.00 | 0.03 | 0.03 | 47 | 1009.5 |
| 20260509011528 | 16 | 44 | 0.0 | 0.0 | 0.00 | 0.03 | 0.03 | 47 | 1009.4 |
| 20260509011220 | 17 | 44 | 0.0 | 0.0 | 0.00 | 0.03 | 0.03 | 46 | 1009.4 |
| 20260509011108 | 16 | 44 | 0.0 | 0.0 | 0.00 | 0.03 | 0.03 | 47 | 1009.5 |
| 20260509010010 | 17 | 44 | 0.0 | 0.0 | 0.00 | 0.03 | 0.03 | 46 | 1009.4 |
| 20260509005728 | 17 | 44 | 0.0 | 1.6 | 0.00 | 0.03 | 0.03 | 46 | 1009.5 |
| 20260509004957 | 17 | 44 | 0.0 | 1.6 | 0.00 | 0.03 | 0.03 | 45 | 1009.4 |
| 20260509004451 | 17 | 46 | 0.0 | 1.6 | 0.00 | 0.03 | 0.03 | 45 | 1009.4 |
| 20260509003946 | 17 | 46 | 0.0 | 1.6 | 0.00 | 0.03 | 0.03 | 44 | 1009.5 |
| 20260509003440 | 18 | 46 | 0.0 | 0.0 | 0.00 | 0.03 | 0.03 | 44 | 1009.4 |
| 20260509002934 | 18 | 41 | 0.0 | 1.6 | 0.00 | 0.03 | 0.03 | 44 | 1009.3 |
| 20260509002428 | 18 | 41 | 0.0 | 1.6 | 0.00 | 0.03 | 0.03 | 43 | 1009.3 |
| 20260509001922 | 18 | 41 | 0.0 | 1.6 | 0.00 | 0.03 | 0.03 | 43 | 1009.3 |
| 20260509001415 | 18 | 31 | 0.0 | 1.6 | 0.00 | 0.03 | 0.03 | 43 | 1009.3 |
| 20260509000910 | 18 | 30 | 0.0 | 1.6 | 0.00 | 0.03 | 0.03 | 42 | 1009.3 |
| 20260509000403 | 18 | 231 | 0.0 | 1.6 | 0.00 | 0.03 | 0.03 | 42 | 1009.3 |
| 20260508235858 | 19 | 233 | 0.0 | 1.6 | 0.00 | 0.03 | 0.03 | 41 | 1009.2 |
| 20260508235616 | 19 | 233 | 0.0 | 1.6 | 0.00 | 0.03 | 0.03 | 41 | 1009.1 |
| 20260508234846 | 19 | 131 | 0.0 | 4.8 | 0.00 | 0.03 | 0.03 | 40 | 1009.0 |
| 20260508234340 | 20 | 237 | 0.0 | 4.8 | 0.00 | 0.03 | 0.03 | 40 | 1008.9 |
| 20260508233833 | 20 | 164 | 0.0 | 1.6 | 0.00 | 0.03 | 0.03 | 39 | 1008.9 |
| 20260508233328 | 20 | 164 | 0.0 | 1.6 | 0.00 | 0.03 | 0.03 | 38 | 1008.9 |
| 20260508232822 | 20 | 222 | 0.0 | 1.6 | 0.00 | 0.03 | 0.03 | 38 | 1008.8 |
| 20260508232315 | 20 | 75 | 0.0 | 3.2 | 0.00 | 0.03 | 0.03 | 38 | 1008.8 |
| 20260508231810 | 20 | 307 | 0.0 | 3.2 | 0.00 | 0.03 | 0.03 | 38 | 1008.7 |
| 20260508231304 | 20 | 238 | 0.0 | 4.8 | 0.00 | 0.03 | 0.03 | 37 | 1008.7 |
| 20260508230757 | 21 | 19 | 0.0 | 4.8 | 0.00 | 0.03 | 0.03 | 37 | 1008.7 |
| 20260508230252 | 21 | 43 | 0.0 | 3.2 | 0.00 | 0.03 | 0.03 | 37 | 1008.8 |
| 20260508225746 | 21 | 89 | 0.0 | 3.2 | 0.00 | 0.03 | 0.03 | 34 | 1008.7 |
| 20260508225240 | 21 | 162 | 0.0 | 3.2 | 0.00 | 0.03 | 0.03 | 35 | 1008.7 |
| 20260508224734 | 21 | 200 | 0.0 | 1.6 | 0.00 | 0.03 | 0.03 | 37 | 1008.7 |
| 20260508224229 | 21 | 146 | 0.0 | 1.6 | 0.00 | 0.03 | 0.03 | 36 | 1008.7 |
| 20260508223722 | 22 | 120 | 0.0 | 1.6 | 0.00 | 0.03 | 0.03 | 36 | 1008.7 |
| 20260508223215 | 22 | 156 | 1.6 | 6.4 | 0.00 | 0.03 | 0.03 | 35 | 1008.7 |
| 20260508222709 | 22 | 304 | 1.6 | 8.0 | 0.00 | 0.03 | 0.03 | 33 | 1008.8 |
| 20260508222204 | 22 | 144 | 1.6 | 9.7 | 0.00 | 0.03 | 0.03 | 34 | 1008.9 |
| 20260508221658 | 22 | 30 | 1.6 | 9.7 | 0.00 | 0.03 | 0.03 | 33 | 1008.9 |
| 20260508221152 | 22 | 236 | 1.6 | 8.0 | 0.00 | 0.03 | 0.03 | 32 | 1009.0 |
| 20260508220646 | 23 | 233 | 1.6 | 6.4 | 0.00 | 0.03 | 0.03 | 33 | 1009.0 |
| 20260508220143 | 23 | 49 | 0.0 | 3.2 | 0.00 | 0.03 | 0.03 | 32 | 1009.0 |
| 20260508215643 | 23 | 103 | 0.0 | 3.2 | 0.00 | 0.03 | 0.03 | 32 | 1009.0 |
| 20260508215625 | 24 | 164 | 0.0 | 3.2 | 0.00 | 0.03 | 0.03 | 32 | 1009.0 |
| 20260508214645 | 25 | 41 | 0.0 | 3.2 | 0.00 | 0.03 | 0.03 | 30 | 1009.0 |
| 20260508214349 | 24 | 205 | 1.6 | 6.4 | 0.00 | 0.03 | 0.03 | 30 | 1009.1 |
| 20260508214238 | 24 | 94 | 0.0 | 3.2 | 0.00 | 0.03 | 0.03 | 30 | 1009.0 |
| 20260508213140 | 24 | 44 | 1.6 | 6.4 | 0.00 | 0.03 | 0.03 | 31 | 1009.1 |
| 20260508212639 | 25 | 210 | 1.6 | 6.4 | 0.00 | 0.03 | 0.03 | 29 | 1009.1 |
| 20260508212138 | 25 | 215 | 0.0 | 3.2 | 0.00 | 0.03 | 0.03 | 30 | 1009.0 |
| 20260508211636 | 24 | 215 | 0.0 | 6.4 | 0.00 | 0.03 | 0.03 | 31 | 1009.0 |
| 20260508211135 | 24 | 219 | 1.6 | 6.4 | 0.00 | 0.03 | 0.03 | 29 | 1009.0 |
| 20260508210900 | 23 | 210 | 1.6 | 9.7 | 0.00 | 0.03 | 0.03 | 30 | 1009.0 |
| 20260508210736 | 24 | 297 | 1.6 | 9.7 | 0.00 | 0.03 | 0.03 | 31 | 1009.1 |
| 20260508205636 | 23 | 176 | 1.6 | 9.7 | 0.00 | 0.03 | 0.03 | 32 | 1009.1 |
| 20260508205134 | 23 | 224 | 1.6 | 9.7 | 0.00 | 0.05 | 0.03 | 30 | 1009.2 |
| 20260508204857 | 23 | 193 | 1.6 | 9.7 | 0.00 | 0.05 | 0.03 | 31 | 1009.3 |
| 20260508204404 | 23 | 193 | 1.6 | 6.4 | 0.00 | 0.10 | 0.03 | 30 | 1009.2 |
| 20260508203635 | 23 | 343 | 1.6 | 8.0 | 0.00 | 0.13 | 0.03 | 30 | 1009.2 |
| 20260508203135 | 23 | 1 | 1.6 | 8.0 | 0.00 | 0.15 | 0.03 | 30 | 1009.3 |
| 20260508202636 | 24 | 214 | 1.6 | 6.4 | 0.00 | 0.20 | 0.03 | 31 | 1009.3 |
| 20260508202134 | 24 | 144 | 1.6 | 8.0 | 0.00 | 0.23 | 0.03 | 31 | 1009.3 |
| 20260508201634 | 25 | 69 | 0.0 | 8.0 | 0.00 | 0.23 | 0.03 | 29 | 1009.4 |
| 20260508201136 | 24 | 158 | 0.0 | 4.8 | 0.00 | 0.28 | 0.03 | 32 | 1009.3 |
| 20260508200636 | 24 | 186 | 0.0 | 4.8 | 0.00 | 0.30 | 0.03 | 34 | 1009.4 |
| 20260508200135 | 23 | 211 | 1.6 | 8.0 | 0.00 | 0.33 | 0.03 | 33 | 1009.5 |
| 20260508195636 | 23 | 345 | 1.6 | 8.0 | 0.00 | 0.33 | 0.03 | 33 | 1009.6 |
| 20260508195353 | 23 | 195 | 1.6 | 9.7 | 0.00 | 0.33 | 0.03 | 36 | 1009.5 |
| 20260508194632 | 23 | 276 | 1.6 | 11.3 | 0.00 | 0.33 | 0.03 | 31 | 1009.7 |
| 20260508194132 | 23 | 225 | 1.6 | 11.3 | 0.00 | 0.33 | 0.03 | 32 | 1009.8 |
| 20260508193631 | 23 | 203 | 1.6 | 4.8 | 0.00 | 0.33 | 0.03 | 31 | 1009.8 |
| 20260508193358 | 23 | 191 | 1.6 | 6.4 | 0.00 | 0.33 | 0.03 | 34 | 1009.9 |
| 20260508192631 | 23 | 162 | 1.6 | 6.4 | 0.00 | 0.33 | 0.03 | 32 | 1009.9 |
| 20260508192131 | 23 | 229 | 1.6 | 9.7 | 0.00 | 0.33 | 0.03 | 31 | 1010.0 |
| 20260508191631 | 23 | 34 | 1.6 | 9.7 | 0.00 | 0.33 | 0.03 | 33 | 1010.3 |
| 20260508191353 | 23 | 130 | 1.6 | 6.4 | 0.00 | 0.33 | 0.03 | 34 | 1010.3 |
| 20260508190632 | 23 | 56 | 1.6 | 6.4 | 0.00 | 0.33 | 0.03 | 32 | 1010.5 |
| 20260508190132 | 23 | 176 | 1.6 | 6.4 | 0.00 | 0.33 | 0.03 | 35 | 1010.4 |
| 20260508185630 | 23 | 158 | 1.6 | 6.4 | 0.00 | 0.33 | 0.03 | 34 | 1010.4 |
| 20260508185131 | 23 | 117 | 1.6 | 6.4 | 0.00 | 0.33 | 0.03 | 33 | 1010.6 |
| 20260508184632 | 23 | 32 | 1.6 | 4.8 | 0.00 | 0.33 | 0.03 | 33 | 1010.6 |
| 20260508184128 | 23 | 154 | 1.6 | 8.0 | 0.00 | 0.33 | 0.03 | 34 | 1010.6 |
| 20260508183627 | 22 | 165 | 1.6 | 8.0 | 0.00 | 0.33 | 0.03 | 34 | 1010.7 |
| 20260508183127 | 23 | 245 | 1.6 | 8.0 | 0.00 | 0.33 | 0.03 | 35 | 1010.8 |
| 20260508182625 | 23 | 141 | 1.6 | 8.0 | 0.00 | 0.33 | 0.03 | 34 | 1010.8 |
| 20260508182125 | 23 | 125 | 0.0 | 8.0 | 0.00 | 0.33 | 0.03 | 36 | 1010.9 |
| 20260508181626 | 22 | 217 | 1.6 | 6.4 | 0.00 | 0.33 | 0.03 | 36 | 1010.9 |
| 20260508181125 | 22 | 235 | 1.6 | 6.4 | 0.00 | 0.33 | 0.03 | 34 | 1010.9 |
| 20260508180626 | 22 | 221 | 1.6 | 6.4 | 0.00 | 0.33 | 0.03 | 36 | 1011.1 |
| 20260508180120 | 22 | 226 | 1.6 | 6.4 | 0.00 | 0.33 | 0.03 | 36 | 1011.1 |
| 20260508175620 | 22 | 209 | 1.6 | 11.3 | 0.00 | 0.33 | 0.03 | 37 | 1011.1 |
| 20260508175123 | 22 | 289 | 1.6 | 11.3 | 0.00 | 0.33 | 0.03 | 33 | 1011.2 |
| 20260508174620 | 22 | 82 | 1.6 | 6.4 | 0.00 | 0.33 | 0.03 | 35 | 1011.2 |
| 20260508174121 | 22 | 129 | 1.6 | 6.4 | 0.00 | 0.33 | 0.03 | 33 | 1011.2 |
| 20260508173620 | 22 | 48 | 1.6 | 6.4 | 0.00 | 0.33 | 0.03 | 37 | 1011.3 |
| 20260508173119 | 22 | 232 | 0.0 | 3.2 | 0.00 | 0.33 | 0.03 | 38 | 1011.3 |
| 20260508173108 | 22 | 147 | 0.0 | 4.8 | 0.00 | 0.33 | 0.03 | 37 | 1011.4 |
| 20260508172116 | 21 | 206 | 1.6 | 8.0 | 0.00 | 0.33 | 0.03 | 38 | 1011.6 |
| 20260508171616 | 21 | 65 | 1.6 | 8.0 | 0.00 | 0.33 | 0.03 | 37 | 1011.6 |
| 20260508171118 | 21 | 229 | 1.6 | 6.4 | 0.00 | 0.33 | 0.03 | 36 | 1011.8 |
| 20260508170618 | 21 | 163 | 0.0 | 6.4 | 0.00 | 0.33 | 0.03 | 37 | 1011.8 |
| 20260508170116 | 21 | 49 | 1.6 | 6.4 | 0.00 | 0.33 | 0.03 | 38 | 1011.8 |
| 20260508165616 | 21 | 118 | 1.6 | 6.4 | 0.00 | 0.33 | 0.03 | 37 | 1011.9 |
| 20260508165114 | 20 | 152 | 1.6 | 6.4 | 0.00 | 0.33 | 0.03 | 42 | 1011.9 |
| 20260508164614 | 20 | 349 | 1.6 | 6.4 | 0.00 | 0.33 | 0.03 | 38 | 1012.0 |
| 20260508164115 | 20 | 34 | 1.6 | 6.4 | 0.00 | 0.33 | 0.03 | 38 | 1012.1 |
| 20260508163610 | 20 | 197 | 1.6 | 6.4 | 0.00 | 0.33 | 0.03 | 37 | 1012.3 |
| 20260508163323 | 19 | 23 | 1.6 | 6.4 | 0.00 | 0.33 | 0.03 | 39 | 1012.3 |
| 20260508162823 | 19 | 160 | 1.6 | 8.0 | 0.00 | 0.33 | 0.03 | 37 | 1012.4 |
| 20260508162051 | 19 | 212 | 0.0 | 8.0 | 0.00 | 0.33 | 0.03 | 42 | 1012.5 |
| 20260508161814 | 18 | 155 | 0.0 | 1.6 | 0.00 | 0.33 | 0.03 | 43 | 1012.5 |
| 20260508161039 | 18 | 150 | 0.0 | 1.6 | 0.00 | 0.33 | 0.03 | 46 | 1012.5 |
| 20260508160533 | 18 | 150 | 0.0 | 3.2 | 0.00 | 0.33 | 0.03 | 45 | 1012.6 |
| 20260508160027 | 17 | 203 | 0.0 | 3.2 | 0.00 | 0.36 | 0.03 | 45 | 1012.7 |
| 20260508155521 | 17 | 112 | 0.0 | 3.2 | 0.00 | 0.36 | 0.03 | 46 | 1012.7 |
| 20260508155015 | 17 | 27 | 0.0 | 3.2 | 0.00 | 0.36 | 0.03 | 46 | 1012.9 |
| 20260508154509 | 16 | 214 | 0.0 | 3.2 | 0.00 | 0.36 | 0.03 | 46 | 1012.9 |
| 20260508154003 | 16 | 49 | 0.0 | 3.2 | 0.00 | 0.36 | 0.03 | 48 | 1013.0 |
| 20260508153457 | 16 | 357 | 0.0 | 1.6 | 0.00 | 0.38 | 0.03 | 47 | 1013.0 |
| 20260508153213 | 15 | 217 | 0.0 | 1.6 | 0.00 | 0.38 | 0.03 | 57 | 1013.0 |
| 20260508152446 | 15 | 217 | 0.0 | 1.6 | 0.00 | 0.38 | 0.03 | 56 | 1013.0 |
| 20260508151938 | 15 | 229 | 0.0 | 3.2 | 0.00 | 0.41 | 0.03 | 60 | 1013.1 |
| 20260508151433 | 15 | 229 | 0.0 | 3.2 | 0.00 | 0.41 | 0.03 | 53 | 1013.2 |
| 20260508150927 | 15 | 225 | 0.0 | 3.2 | 0.00 | 0.41 | 0.03 | 50 | 1013.2 |
| 20260508150421 | 15 | 30 | 0.0 | 3.2 | 0.00 | 0.41 | 0.03 | 52 | 1013.2 |
| 20260508145915 | 14 | 153 | 0.0 | 4.8 | 0.00 | 0.41 | 0.03 | 54 | 1013.3 |
| 20260508145410 | 14 | 198 | 0.0 | 4.8 | 0.00 | 0.41 | 0.03 | 54 | 1013.2 |
| 20260508144903 | 13 | 212 | 0.0 | 3.2 | 0.00 | 0.41 | 0.03 | 63 | 1013.2 |
| 20260508144357 | 13 | 46 | 0.0 | 1.6 | 0.00 | 0.41 | 0.03 | 69 | 1013.2 |
| 20260508143851 | 13 | 46 | 0.0 | 1.6 | 0.00 | 0.41 | 0.03 | 66 | 1013.2 |
| 20260508143345 | 13 | 63 | 0.0 | 1.6 | 0.00 | 0.41 | 0.03 | 70 | 1013.2 |
| 20260508142838 | 12 | 63 | 0.0 | 1.6 | 0.00 | 0.41 | 0.03 | 74 | 1013.1 |
| 20260508142333 | 12 | 140 | 0.0 | 1.6 | 0.00 | 0.41 | 0.03 | 72 | 1013.1 |
| 20260508141828 | 12 | 208 | 0.0 | 1.6 | 0.00 | 0.41 | 0.03 | 75 | 1013.1 |
| 20260508141322 | 11 | 210 | 0.0 | 1.6 | 0.00 | 0.41 | 0.03 | 80 | 1013.2 |
| 20260508141035 | 11 | 210 | 0.0 | 1.6 | 0.00 | 0.41 | 0.03 | 82 | 1013.2 |
| 20260508140309 | 11 | 210 | 0.0 | 1.6 | 0.00 | 0.41 | 0.03 | 87 | 1013.2 |
| 20260508135803 | 11 | 210 | 0.0 | 1.6 | 0.00 | 0.41 | 0.03 | 89 | 1013.2 |
| 20260508135256 | 11 | 198 | 0.0 | 3.2 | 0.00 | 0.41 | 0.03 | 92 | 1013.3 |
| 20260508135015 | 10 | 198 | 0.0 | 3.2 | 0.00 | 0.41 | 0.03 | 92 | 1013.3 |
| 20260508134439 | 9 | 180 | 0.0 | 0.0 | 0.00 | 0.41 | 0.03 | 97 | 1013.4 |
| 20260508134329 | 10 | 175 | 0.0 | 1.6 | 0.00 | 0.41 | 0.03 | 95 | 1013.4 |
| 20260508133233 | 9 | 180 | 0.0 | 0.0 | 0.00 | 0.41 | 0.03 | 97 | 1013.4 |
| 20260508132727 | 9 | 180 | 0.0 | 0.0 | 0.00 | 0.41 | 0.03 | 97 | 1013.4 |
| 20260508132221 | 9 | 180 | 0.0 | 0.0 | 0.00 | 0.41 | 0.03 | 97 | 1013.4 |
| 20260508131715 | 9 | 180 | 0.0 | 0.0 | 0.00 | 0.41 | 0.03 | 97 | 1013.3 |
| 20260508131209 | 10 | 180 | 0.0 | 0.0 | 0.00 | 0.41 | 0.03 | 97 | 1013.3 |
| 20260508130703 | 10 | 180 | 0.0 | 0.0 | 0.00 | 0.41 | 0.03 | 97 | 1013.4 |
| 20260508130424 | 9 | 180 | 0.0 | 0.0 | 0.00 | 0.41 | 0.03 | 97 | 1013.3 |
| 20260508125651 | 9 | 180 | 0.0 | 0.0 | 0.00 | 0.41 | 0.03 | 97 | 1013.3 |
| 20260508125145 | 9 | 180 | 0.0 | 0.0 | 0.00 | 0.41 | 0.03 | 97 | 1013.4 |
| 20260508125131 | 9 | 180 | 0.0 | 0.0 | 0.00 | 0.41 | 0.03 | 97 | 1013.3 |
| 20260508124358 | 9 | 180 | 0.0 | 0.0 | 0.00 | 0.41 | 0.03 | 97 | 1013.3 |
| 20260508123627 | 8 | 180 | 0.0 | 0.0 | 0.00 | 0.41 | 0.03 | 97 | 1013.2 |
| 20260508123121 | 8 | 180 | 0.0 | 0.0 | 0.00 | 0.41 | 0.03 | 97 | 1013.1 |
| 20260508122615 | 8 | 180 | 0.0 | 0.0 | 0.03 | 0.41 | 0.03 | 97 | 1013.1 |
| 20260508122109 | 8 | 180 | 0.0 | 0.0 | 0.03 | 0.41 | 0.03 | 97 | 1013.1 |
| 20260508122047 | 7 | 180 | 0.0 | 0.0 | 0.03 | 0.41 | 0.03 | 97 | 1013.0 |
| 20260508121319 | 7 | 180 | 0.0 | 0.0 | 0.03 | 0.41 | 0.03 | 97 | 1012.9 |
| 20260508120818 | 7 | 180 | 0.0 | 0.0 | 0.03 | 0.41 | 0.03 | 97 | 1012.7 |
| 20260508120045 | 6 | 180 | 0.0 | 0.0 | 0.03 | 0.41 | 0.03 | 97 | 1012.6 |
| 20260508115539 | 6 | 180 | 0.0 | 0.0 | 0.03 | 0.41 | 0.03 | 97 | 1012.5 |
| 20260508115033 | 6 | 180 | 0.0 | 0.0 | 0.03 | 0.41 | 0.03 | 97 | 1012.5 |
| 20260508114527 | 6 | 180 | 0.0 | 0.0 | 0.03 | 0.41 | 0.03 | 97 | 1012.3 |
| 20260508114249 | 6 | 180 | 0.0 | 0.0 | 0.03 | 0.41 | 0.03 | 96 | 1012.3 |
| 20260508113514 | 6 | 180 | 0.0 | 0.0 | 0.03 | 0.41 | 0.03 | 96 | 1012.3 |
| 20260508113009 | 5 | 180 | 0.0 | 0.0 | 0.00 | 0.38 | 0.03 | 96 | 1012.2 |
| 20260508112504 | 5 | 180 | 0.0 | 0.0 | 0.00 | 0.38 | 0.00 | 96 | 1012.2 |
| 20260508111957 | 5 | 180 | 0.0 | 0.0 | 0.00 | 0.38 | 0.00 | 96 | 1012.1 |
| 20260508111451 | 5 | 180 | 0.0 | 0.0 | 0.00 | 0.38 | 0.00 | 96 | 1012.0 |
| 20260508111204 | 5 | 180 | 0.0 | 0.0 | 0.00 | 0.38 | 0.00 | 96 | 1011.9 |
| 20260508110446 | 5 | 180 | 0.0 | 0.0 | 0.00 | 0.38 | 0.00 | 96 | 1011.8 |
| 20260508105946 | 5 | 180 | 0.0 | 0.0 | 0.00 | 0.38 | 0.00 | 96 | 1011.7 |
| 20260508105445 | 5 | 180 | 0.0 | 0.0 | 0.00 | 0.38 | 0.00 | 96 | 1011.6 |
| 20260508104945 | 5 | 180 | 0.0 | 0.0 | 0.00 | 0.38 | 0.00 | 96 | 1011.5 |
| 20260508104705 | 5 | 180 | 0.0 | 0.0 | 0.00 | 0.38 | 0.00 | 96 | 1011.4 |
| 20260508103943 | 5 | 180 | 0.0 | 0.0 | 0.00 | 0.38 | 0.00 | 96 | 1011.4 |
| 20260508103442 | 5 | 180 | 0.0 | 0.0 | 0.00 | 0.38 | 0.00 | 96 | 1011.3 |
| 20260508102941 | 5 | 180 | 0.0 | 0.0 | 0.00 | 0.38 | 0.00 | 96 | 1011.3 |
| 20260508102443 | 5 | 180 | 0.0 | 0.0 | 0.00 | 0.38 | 0.00 | 96 | 1011.3 |
| 20260508101942 | 5 | 180 | 0.0 | 0.0 | 0.00 | 0.38 | 0.00 | 96 | 1011.3 |
| 20260508101443 | 5 | 180 | 0.0 | 0.0 | 0.00 | 0.38 | 0.00 | 96 | 1011.2 |
| 20260508100939 | 5 | 180 | 0.0 | 0.0 | 0.00 | 0.38 | 0.00 | 96 | 1011.1 |
| 20260508100438 | 6 | 180 | 0.0 | 0.0 | 0.00 | 0.38 | 0.00 | 96 | 1011.0 |
| 20260508095938 | 6 | 180 | 0.0 | 0.0 | 0.00 | 0.38 | 0.00 | 96 | 1011.0 |
| 20260508095439 | 6 | 180 | 0.0 | 0.0 | 0.00 | 0.38 | 0.00 | 96 | 1010.9 |
| 20260508094938 | 6 | 180 | 0.0 | 0.0 | 0.00 | 0.38 | 0.00 | 96 | 1010.9 |
| 20260508094437 | 6 | 180 | 0.0 | 0.0 | 0.00 | 0.38 | 0.00 | 96 | 1010.8 |
| 20260508093939 | 6 | 180 | 0.0 | 0.0 | 0.00 | 0.38 | 0.00 | 96 | 1010.7 |
| 20260508093439 | 6 | 180 | 0.0 | 0.0 | 0.00 | 0.38 | 0.00 | 96 | 1010.8 |
| 20260508092939 | 6 | 180 | 0.0 | 0.0 | 0.00 | 0.38 | 0.00 | 96 | 1010.6 |
| 20260508092436 | 6 | 180 | 0.0 | 0.0 | 0.00 | 0.38 | 0.00 | 96 | 1010.5 |
| 20260508091935 | 6 | 180 | 0.0 | 0.0 | 0.00 | 0.38 | 0.00 | 96 | 1010.5 |
| 20260508091435 | 6 | 180 | 0.0 | 0.0 | 0.00 | 0.38 | 0.00 | 96 | 1010.4 |
| 20260508090934 | 6 | 180 | 0.0 | 0.0 | 0.00 | 0.38 | 0.00 | 96 | 1010.4 |
| 20260508090433 | 6 | 180 | 0.0 | 0.0 | 0.00 | 0.38 | 0.00 | 96 | 1010.3 |
| 20260508090153 | 6 | 180 | 0.0 | 0.0 | 0.00 | 0.38 | 0.00 | 96 | 1010.3 |
| 20260508085924 | 6 | 180 | 0.0 | 0.0 | 0.00 | 0.38 | 0.00 | 96 | 1010.3 |
| 20260508084935 | 6 | 180 | 0.0 | 0.0 | 0.00 | 0.38 | 0.00 | 96 | 1010.3 |
| 20260508084435 | 6 | 180 | 0.0 | 0.0 | 0.00 | 0.38 | 0.00 | 96 | 1010.2 |
| 20260508083929 | 6 | 180 | 0.0 | 0.0 | 0.00 | 0.38 | 0.00 | 96 | 1010.2 |
| 20260508083422 | 6 | 180 | 0.0 | 0.0 | 0.00 | 0.38 | 0.00 | 96 | 1010.1 |
| 20260508082916 | 6 | 180 | 0.0 | 0.0 | 0.00 | 0.38 | 0.00 | 96 | 1010.0 |
| 20260508082411 | 6 | 180 | 0.0 | 0.0 | 0.00 | 0.38 | 0.00 | 96 | 1009.9 |
| 20260508082321 | 7 | 180 | 0.0 | 0.0 | 0.00 | 0.38 | 0.00 | 96 | 1009.9 |
| 20260508081949 | 7 | 180 | 0.0 | 0.0 | 0.00 | 0.38 | 0.00 | 96 | 1009.9 |
| 20260508080852 | 7 | 180 | 0.0 | 0.0 | 0.00 | 0.38 | 0.00 | 96 | 1009.8 |
| 20260508080346 | 7 | 180 | 0.0 | 0.0 | 0.00 | 0.38 | 0.00 | 96 | 1009.8 |
| 20260508075335 | 7 | 180 | 0.0 | 0.0 | 0.00 | 0.38 | 0.00 | 96 | 1009.7 |
| 20260508074828 | 7 | 180 | 0.0 | 0.0 | 0.00 | 0.38 | 0.00 | 96 | 1009.7 |
| 20260508074322 | 7 | 180 | 0.0 | 0.0 | 0.00 | 0.38 | 0.00 | 96 | 1009.6 |
| 20260508073816 | 7 | 180 | 0.0 | 0.0 | 0.00 | 0.38 | 0.00 | 96 | 1009.6 |
| 20260508073310 | 7 | 180 | 0.0 | 0.0 | 0.00 | 0.38 | 0.00 | 96 | 1009.6 |
| 20260508072804 | 7 | 180 | 0.0 | 0.0 | 0.00 | 0.38 | 0.00 | 96 | 1009.6 |
| 20260508072508 | 7 | 180 | 0.0 | 0.0 | 0.00 | 0.38 | 0.00 | 96 | 1009.4 |
| 20260508072350 | 7 | 180 | 0.0 | 0.0 | 0.00 | 0.38 | 0.00 | 96 | 1009.5 |
| 20260508071246 | 7 | 180 | 0.0 | 0.0 | 0.00 | 0.38 | 0.00 | 96 | 1009.4 |
| 20260508070740 | 7 | 180 | 0.0 | 0.0 | 0.00 | 0.38 | 0.00 | 96 | 1009.3 |
| 20260508070233 | 7 | 180 | 0.0 | 0.0 | 0.00 | 0.38 | 0.00 | 96 | 1009.3 |
| 20260508065729 | 7 | 180 | 0.0 | 0.0 | 0.00 | 0.38 | 0.00 | 96 | 1009.3 |
| 20260508065221 | 7 | 180 | 0.0 | 0.0 | 0.00 | 0.38 | 0.00 | 96 | 1009.3 |
| 20260508064716 | 7 | 180 | 0.0 | 0.0 | 0.00 | 0.38 | 0.00 | 96 | 1009.3 |
| 20260508064210 | 7 | 180 | 0.0 | 0.0 | 0.00 | 0.38 | 0.00 | 96 | 1009.3 |
| 20260508063704 | 7 | 180 | 0.0 | 0.0 | 0.00 | 0.38 | 0.00 | 96 | 1009.3 |
| 20260508063158 | 7 | 180 | 0.0 | 0.0 | 0.00 | 0.38 | 0.00 | 96 | 1009.3 |
| 20260508062652 | 7 | 180 | 0.0 | 0.0 | 0.00 | 0.38 | 0.00 | 95 | 1009.2 |
| 20260508062146 | 7 | 180 | 0.0 | 0.0 | 0.00 | 0.38 | 0.00 | 95 | 1009.2 |
| 20260508061639 | 7 | 180 | 0.0 | 0.0 | 0.00 | 0.38 | 0.00 | 95 | 1009.1 |
| 20260508061135 | 7 | 180 | 0.0 | 0.0 | 0.00 | 0.38 | 0.00 | 95 | 1009.1 |
| 20260508060851 | 7 | 180 | 0.0 | 0.0 | 0.00 | 0.38 | 0.00 | 95 | 1009.0 |
| 20260508060122 | 7 | 180 | 0.0 | 0.0 | 0.00 | 0.38 | 0.00 | 95 | 1009.0 |
| 20260508055616 | 7 | 180 | 0.0 | 0.0 | 0.00 | 0.38 | 0.00 | 95 | 1008.9 |
| 20260508055111 | 7 | 180 | 0.0 | 0.0 | 0.00 | 0.38 | 0.00 | 95 | 1008.9 |
| 20260508054604 | 7 | 180 | 0.0 | 0.0 | 0.00 | 0.38 | 0.00 | 95 | 1008.8 |
| 20260508054058 | 7 | 180 | 0.0 | 0.0 | 0.00 | 0.38 | 0.00 | 95 | 1008.7 |
| 20260508053553 | 7 | 180 | 0.0 | 0.0 | 0.00 | 0.38 | 0.00 | 95 | 1008.8 |
| 20260508053306 | 7 | 180 | 0.0 | 0.0 | 0.00 | 0.38 | 0.00 | 95 | 1008.8 |
| 20260508052540 | 7 | 180 | 0.0 | 0.0 | 0.00 | 0.38 | 0.00 | 95 | 1008.8 |
| 20260508052259 | 7 | 180 | 0.0 | 0.0 | 0.00 | 0.38 | 0.00 | 95 | 1008.9 |
| 20260508051537 | 7 | 180 | 0.0 | 0.0 | 0.00 | 0.38 | 0.00 | 95 | 1008.8 |
| 20260508051037 | 7 | 180 | 0.0 | 0.0 | 0.00 | 0.38 | 0.00 | 95 | 1008.8 |
| 20260508050533 | 7 | 180 | 0.0 | 0.0 | 0.00 | 0.38 | 0.00 | 95 | 1008.8 |
| 20260508050031 | 7 | 180 | 0.0 | 0.0 | 0.00 | 0.38 | 0.00 | 95 | 1008.8 |
| 20260508045753 | 7 | 180 | 0.0 | 0.0 | 0.00 | 0.38 | 0.00 | 95 | 1008.8 |
| 20260508045028 | 7 | 180 | 0.0 | 0.0 | 0.00 | 0.38 | 0.00 | 95 | 1008.7 |
| 20260508044526 | 7 | 180 | 0.0 | 0.0 | 0.00 | 0.38 | 0.00 | 95 | 1008.5 |
| 20260508044027 | 7 | 180 | 0.0 | 0.0 | 0.00 | 0.38 | 0.00 | 95 | 1008.5 |
| 20260508043523 | 7 | 180 | 0.0 | 0.0 | 0.00 | 0.38 | 0.00 | 95 | 1008.4 |
| 20260508043240 | 7 | 180 | 0.0 | 0.0 | 0.00 | 0.38 | 0.00 | 95 | 1008.4 |
| 20260508042524 | 8 | 180 | 0.0 | 0.0 | 0.00 | 0.38 | 0.00 | 95 | 1008.4 |
| 20260508042024 | 8 | 180 | 0.0 | 0.0 | 0.00 | 0.38 | 0.00 | 95 | 1008.5 |
| 20260508041523 | 8 | 180 | 0.0 | 0.0 | 0.00 | 0.38 | 0.00 | 95 | 1008.5 |
| 20260508041025 | 8 | 180 | 0.0 | 0.0 | 0.00 | 0.38 | 0.00 | 95 | 1008.4 |
| 20260508040521 | 8 | 180 | 0.0 | 0.0 | 0.00 | 0.38 | 0.00 | 95 | 1008.4 |
| 20260508040021 | 8 | 180 | 0.0 | 0.0 | 0.00 | 0.38 | 0.00 | 95 | 1008.4 |
| 20260508035519 | 8 | 180 | 0.0 | 0.0 | 0.00 | 0.38 | 0.41 | 95 | 1008.3 |
| 20260508035247 | 8 | 180 | 0.0 | 0.0 | 0.00 | 0.38 | 0.41 | 95 | 1008.3 |
| 20260508034511 | 8 | 180 | 0.0 | 0.0 | 0.00 | 0.38 | 0.41 | 95 | 1008.3 |
| 20260508034006 | 8 | 180 | 0.0 | 0.0 | 0.00 | 0.38 | 0.41 | 95 | 1008.3 |
| 20260508033500 | 8 | 180 | 0.0 | 0.0 | 0.00 | 0.38 | 0.41 | 95 | 1008.2 |
| 20260508032953 | 8 | 180 | 0.0 | 0.0 | 0.00 | 0.38 | 0.41 | 95 | 1008.2 |
| 20260508032449 | 8 | 180 | 0.0 | 0.0 | 0.00 | 0.38 | 0.41 | 95 | 1008.2 |
| 20260508031942 | 8 | 180 | 0.0 | 0.0 | 0.00 | 0.38 | 0.41 | 95 | 1008.2 |
| 20260508031435 | 8 | 180 | 0.0 | 0.0 | 0.00 | 0.38 | 0.41 | 95 | 1008.2 |
| 20260508030930 | 8 | 180 | 0.0 | 0.0 | 0.00 | 0.38 | 0.41 | 95 | 1008.2 |